Wind_Speed
20 17 16 17 19 19 15 19 23 26 29 30 32 33 34 34 36 38 39 41 41 43 43 43 43 44 45 45 45 45 44 45 45 42 42 40 42 44 46 48 50 52 52
13 15 21 19 21 19 24 26 25 26 27 27 29 31 32 34 36 38 40 41 41 42 43 42 42 42 42 41 42 43 43 41 41 41 40 43 44 44 45 44 44 45 45
17 19 22 23 27 25 27 27 26 25 26 29 30 32 34 36 36 36 38 38 39 40 40 41 42 41 41 40 41 40 38 39 39 39 41 41 42 43 42 45 48 49 49
19 21 22 22 24 26 28 28 28 30 31 33 34 35 37 39 38 36 33 32 32 34 35 38 38 35 34 36 36 35 37 38 39 39 38 40 43 47 49 49 48 46 46
24 25 26 25 26 27 32 33 35 35 35 37 39 43 43 41 39 37 36 35 35 36 36 36 33 32 33 32 31 34 36 37 37 36 37 42 47 50 49 52 52 41 41
26 30 30 27 30 32 33 35 38 39 41 42 42 42 41 40 39 37 36 38 38 38 37 35 31 32 30 32 34 35 34 35 35 38 40 41 40 42 45 46 47 45 40
34 33 34 34 32 34 37 39 40 43 44 44 43 42 40 38 38 37 37 37 36 38 35 31 30 31 31 33 35 34 34 37 40 40 40 45 45 48 47 45 43 42 42
27 26 31 34 34 35 37 40 42 43 44 43 43 42 40 38 37 36 35 36 35 36 33 28 28 31 33 35 33 31 35 40 41 44 45 46 48 49 44 42 41 43 43
25 27 30 34 35 37 40 42 43 43 41 41 42 38 38 37 36 34 34 34 33 33 31 29 29 32 35 33 32 32 33 37 40 41 41 43 43 41 40 41 44 44 42
26 28 31 34 36 38 40 41 40 39 38 36 36 34 33 33 32 32 32 32 30 30 30 31 32 33 31 30 30 30 32 35 36 36 40 44 41 39 41 42 42 42 40
30 32 36 35 35 37 38 38 38 38 37 36 37 36 34 32 30 30 28 27 27 28 29 31 29 30 28 29 31 32 31 34 36 35 41 38 35 39 39 41 42 41 38
33 32 33 34 36 37 39 39 38 38 37 37 37 35 32 32 30 27 24 23 25 27 26 27 28 28 28 30 31 30 32 35 36 39 43 38 39 36 39 37 36 36 34
30 32 35 37 39 40 38 37 39 41 41 40 37 32 30 30 26 25 22 24 25 23 22 22 25 25 26 27 28 31 33 36 38 43 43 39 38 36 35 33 33 33 23
32 35 37 38 37 37 40 40 39 38 37 34 31 29 29 25 23 22 24 23 26 22 19 21 21 23 24 25 28 31 35 38 38 42 42 39 37 36 33 32 28 21 9
32 34 35 36 36 35 35 33 33 30 29 27 26 26 22 21 18 18 21 21 20 19 21 21 22 22 24 25 30 31 34 35 35 40 37 39 42 38 30 26 17 11 6
32 33 33 31 30 28 28 25 27 23 21 20 20 19 18 19 19 21 18 14 17 18 19 19 19 21 23 24 26 28 31 32 33 37 37 40 36 36 25 20 14 9 8
27 26 25 22 23 23 21 22 22 14 11 13 15 16 18 17 14 12 9 12 16 19 20 19 20 21 23 24 26 27 29 31 33 36 37 41 41 32 19 20 14 5 11
19 17 14 15 16 17 17 15 13 12 9 6 5 2 1 3 5 9 11 14 16 18 19 19 20 21 23 25 25 27 30 29 32 35 33 40 34 27 20 24 11 4 8
15 13 10 8 11 11 13 11 7 8 6 10 12 10 10 9 10 12 14 16 18 18 18 19 21 21 23 25 25 25 27 27 30 32 31 40 25 23 17 17 7 3 9
15 14 12 11 11 12 11 12 13 14 13 11 9 9 9 11 11 13 15 17 18 20 21 21 21 21 21 24 25 25 26 24 28 29 35 36 22 22 20 20 12 13 21
15 15 12 12 13 13 14 15 15 16 13 13 13 13 15 15 16 17 18 18 18 18 19 19 20 22 22 23 23 23 24 22 25 28 34 30 14 15 16 20 12 12 19
16 13 13 13 13 14 14 14 13 13 14 14 15 15 15 16 17 18 19 20 21 21 21 22 21 22 23 23 24 23 23 21 22 25 28 22 8 11 11 5 10 14 16
12 13 13 14 14 14 15 15 16 16 17 18 19 19 20 20 21 22 23 23 23 23 24 24 24 23 22 21 22 22 21 20 18 19 18 16 15 13 7 9 12 12 16
13 14 15 15 16 17 18 19 20 20 21 21 22 23 23 24 25 25 25 26 26 26 26 26 26 26 25 23 22 22 20 18 15 18 16 15 8 6 5 9 13 12 12
14 14 15 17 18 19 19 20 21 22 23 25 26 27 27 28 29 29 29 30 30 30 30 30 30 29 28 27 26 23 22 19 15 17 16 13 3 2 11 13 14 13 13
15 16 17 18 20 21 22 24 25 26 27 29 30 30 31 32 33 33 34 34 34 34 33 33 33 32 32 31 30 28 25 23 18 15 17 15 10 7 6 11 10 13 17
Wind_Direction
264 241 256 274 281 273 251 263 270 275 276 277 278 279 282 284 285 287 290 292 293 292 292 292 291 290 289 288 288 289 290 288 287 285 284 285 284 281 279 278 277 276 276
257 260 266 268 270 261 268 272 276 280 284 288 292 295 294 294 294 293 293 292 291 292 291 290 288 286 286 288 288 288 289 289 286 284 286 286 286 286 286 285 283 281 279
256 262 264 264 262 264 269 274 281 285 290 291 293 296 298 299 300 297 294 292 292 291 290 288 286 286 286 287 289 291 289 288 287 287 288 288 288 289 287 287 287 282 281
262 271 273 259 249 270 272 276 281 289 294 296 297 299 298 296 295 297 299 299 295 296 296 296 294 289 287 290 292 293 292 293 293 291 289 289 294 294 291 289 291 284 278
265 261 262 266 271 277 275 276 284 288 290 292 293 293 292 292 291 290 291 292 292 295 298 296 292 289 292 290 291 293 292 293 294 292 292 294 296 295 293 290 291 283 279
254 257 265 276 280 274 272 274 281 286 289 289 288 288 289 290 290 288 286 284 286 289 294 294 288 290 291 294 296 294 294 296 294 291 289 295 302 302 298 292 288 281 279
266 262 261 271 270 270 274 279 285 288 290 291 291 292 292 289 289 288 285 284 285 284 288 288 287 289 292 298 297 292 297 298 297 295 296 302 306 302 298 285 288 286 279
253 258 261 266 269 276 282 286 289 289 289 289 291 291 289 286 285 285 284 283 283 284 284 283 284 287 293 297 298 300 298 298 299 301 302 306 308 304 297 293 294 292 288
259 265 271 275 281 285 285 285 285 286 288 289 289 288 287 284 280 281 282 284 281 281 281 278 282 286 291 297 299 300 302 307 307 306 308 315 317 309 304 302 300 293 286
265 274 277 281 282 282 284 285 286 286 286 287 287 289 288 285 277 276 280 285 280 279 279 281 286 291 294 297 300 304 307 308 308 314 316 318 315 309 305 303 299 295 288
277 275 279 281 284 286 286 286 284 284 284 286 288 289 288 290 279 277 281 279 275 277 280 285 287 293 296 300 305 307 306 312 316 324 329 326 321 315 313 312 305 300 296
281 283 286 287 288 289 290 287 281 282 284 283 285 287 290 288 279 276 276 276 279 279 279 283 288 293 295 303 307 310 313 318 328 332 335 330 323 319 321 315 309 306 300
288 288 288 288 291 292 291 289 288 290 289 286 282 278 279 280 270 270 269 273 277 271 280 288 288 292 299 306 309 313 316 329 335 334 334 327 323 321 324 323 316 313 290
289 291 293 295 297 299 299 298 296 292 287 282 277 268 271 267 260 266 275 270 275 262 283 286 292 299 300 309 315 318 325 330 332 334 330 331 328 325 326 328 329 324 270
297 299 297 298 301 304 306 305 301 294 282 274 267 264 263 254 257 279 284 272 260 274 282 288 291 295 304 317 320 325 326 329 330 331 334 331 329 324 320 333 328 332 262
304 305 303 302 306 307 306 307 310 295 283 274 271 261 244 255 268 277 259 266 281 287 292 293 299 308 312 319 319 319 320 328 330 333 334 339 341 328 325 337 328 277 258
310 312 307 310 312 309 317 319 313 298 289 279 274 266 262 259 256 257 269 290 291 295 299 305 312 313 313 314 312 316 318 329 335 334 340 343 344 336 332 348 334 271 225
321 315 319 324 327 329 328 324 319 314 336 318 299 343 253 222 320 304 294 292 298 298 302 309 311 313 316 319 322 322 323 330 334 336 337 345 344 344 327 350 344 308 218
328 320 320 321 342 359 1 349 356 3 24 2 346 342 330 316 303 297 295 291 293 299 304 305 305 306 314 319 325 327 327 328 334 341 343 345 351 353 345 352 358 337 157
340 326 326 329 333 334 343 348 352 356 350 350 338 315 303 293 293 291 291 294 296 298 299 301 305 309 315 319 326 331 332 331 331 344 347 347 355 12 22 34 58 115 133
329 336 341 343 344 344 346 347 341 345 338 334 328 327 319 312 304 302 300 298 296 297 301 303 307 309 312 315 322 329 335 334 328 337 345 350 15 12 23 96 92 88 96
314 322 327 328 328 331 333 331 330 330 328 323 320 315 312 307 305 303 303 302 302 302 304 305 305 306 307 310 313 322 330 341 331 338 349 1 24 50 10 111 115 145 125
311 317 320 324 327 329 328 328 328 327 324 321 318 315 312 308 305 303 302 301 300 300 300 301 301 301 303 305 308 315 322 333 330 332 340 14 57 16 32 143 146 134 155
312 318 322 324 325 326 325 324 323 322 319 316 314 311 308 306 304 302 300 298 297 296 295 294 294 295 297 299 302 306 313 320 325 320 323 0 61 15 152 143 165 159 161
317 320 321 322 321 320 319 318 317 316 314 313 311 308 306 303 301 299 296 294 292 291 289 288 287 288 289 289 291 293 298 305 310 306 312 323 157 114 116 148 167 164 159
315 317 318 319 319 319 318 317 316 315 313 312 310 308 306 304 302 299 297 295 292 289 287 285 283 282 281 282 281 281 281 285 292 289 294 300 321 238 154 174 178 162 166
Height
5735 5735 5738 5738 5740 5742 5744 5745 5745 5745 5745 5744 5743 5741 5739 5737 5734 5732 5729 5726 5724 5721 5719 5716 5713 5711 5707 5705 5703 5700 5697 5694 5693 5690 5687 5686 5683 5681 5679 5677 5675 5674 5672
5725 5727 5730 5732 5735 5736 5737 5738 5737 5738 5738 5736 5734 5732 5730 5727 5724 5721 5718 5716 5713 5711 5708 5705 5702 5699 5696 5694 5692 5689 5686 5684 5681 5678 5676 5673 5671 5668 5664 5663 5662 5660 5660
5723 5726 5726 5726 5727 5728 5729 5731 5731 5731 5729 5728 5726 5723 5720 5718 5714 5711 5708 5706 5703 5700 5697 5693 5690 5688 5685 5682 5680 5678 5676 5674 5671 5667 5665 5662 5659 5655 5653 5650 5648 5647 5645
5717 5717 5718 5718 5720 5722 5723 5724 5723 5722 5719 5718 5715 5713 5710 5708 5705 5702 5699 5695 5693 5689 5686 5683 5680 5677 5675 5673 5671 5669 5667 5663 5661 5657 5654 5650 5646 5641 5638 5636 5634 5631 5630
5710 5711 5712 5712 5713 5713 5714 5714 5714 5713 5711 5708 5706 5704 5701 5698 5695 5692 5690 5686 5684 5681 5677 5673 5671 5669 5667 5665 5663 5661 5657 5654 5651 5648 5644 5640 5635 5629 5624 5620 5619 5617 5615
5705 5705 5706 5705 5705 5705 5705 5705 5704 5702 5700 5698 5696 5694 5690 5687 5684 5682 5680 5677 5674 5672 5668 5665 5663 5661 5659 5657 5654 5650 5647 5644 5641 5637 5634 5630 5623 5617 5611 5607 5605 5602 5602
5699 5698 5699 5699 5698 5697 5696 5695 5693 5692 5689 5687 5685 5682 5679 5676 5673 5671 5668 5666 5664 5662 5660 5658 5655 5653 5651 5649 5645 5642 5638 5633 5628 5623 5620 5615 5609 5602 5597 5593 5589 5587 5586
5691 5691 5691 5691 5690 5688 5687 5685 5683 5681 5679 5677 5673 5671 5668 5666 5663 5661 5658 5656 5655 5653 5651 5650 5648 5645 5643 5640 5637 5633 5629 5624 5619 5614 5609 5604 5595 5588 5581 5576 5573 5570 5567
5685 5685 5684 5684 5681 5679 5678 5676 5673 5671 5668 5665 5663 5661 5657 5655 5653 5651 5649 5647 5645 5644 5643 5641 5640 5638 5635 5631 5628 5625 5621 5616 5610 5604 5598 5591 5582 5574 5569 5564 5558 5555 5550
5677 5677 5677 5674 5672 5670 5668 5666 5663 5660 5657 5655 5653 5651 5648 5645 5643 5642 5640 5639 5637 5635 5634 5632 5631 5629 5626 5623 5620 5616 5612 5607 5602 5596 5588 5578 5569 5563 5557 5551 5544 5539 5535
5671 5670 5668 5666 5663 5661 5658 5655 5653 5650 5646 5645 5644 5641 5639 5637 5635 5633 5632 5630 5629 5628 5626 5624 5622 5620 5617 5615 5611 5607 5603 5598 5592 5585 5576 5566 5559 5552 5544 5537 5530 5524 5519
5663 5661 5658 5656 5654 5651 5648 5645 5641 5638 5635 5634 5633 5632 5630 5628 5626 5625 5624 5623 5622 5621 5619 5618 5615 5613 5611 5608 5603 5599 5594 5588 5581 5574 5565 5557 5549 5541 5534 5526 5520 5513 5506
5653 5651 5649 5646 5643 5639 5635 5631 5628 5625 5623 5622 5621 5621 5620 5618 5618 5617 5617 5616 5615 5614 5613 5612 5610 5607 5604 5601 5596 5592 5586 5579 5572 5565 5557 5549 5541 5534 5525 5517 5510 5501 5494
5644 5641 5638 5634 5630 5626 5622 5618 5615 5612 5610 5609 5609 5609 5610 5610 5610 5610 5609 5609 5609 5608 5608 5607 5604 5601 5598 5595 5590 5584 5577 5571 5565 5559 5550 5543 5535 5526 5516 5509 5502 5495 5491
5634 5631 5628 5625 5620 5616 5611 5607 5604 5601 5598 5598 5599 5600 5601 5602 5603 5603 5602 5602 5601 5602 5601 5600 5598 5595 5591 5588 5582 5577 5571 5566 5561 5554 5546 5537 5527 5517 5509 5504 5498 5495 5493
5626 5622 5619 5615 5611 5608 5605 5600 5596 5593 5591 5590 5591 5592 5593 5595 5596 5597 5597 5597 5596 5596 5595 5594 5591 5588 5585 5582 5578 5573 5567 5563 5557 5550 5541 5531 5520 5511 5504 5500 5495 5494 5493
5617 5614 5611 5608 5605 5603 5599 5595 5592 5589 5588 5587 5587 5587 5588 5589 5590 5591 5591 5592 5591 5591 5590 5588 5585 5583 5580 5577 5573 5569 5564 5559 5552 5544 5537 5526 5516 5507 5501 5496 5491 5489 5490
5612 5611 5608 5606 5603 5600 5596 5593 5591 5588 5586 5585 5585 5584 5584 5585 5587 5588 5588 5589 5588 5587 5586 5583 5581 5579 5576 5573 5568 5564 5558 5554 5548 5541 5533 5524 5514 5505 5499 5493 5489 5487 5488
5611 5608 5606 5604 5601 5598 5596 5593 5590 5588 5586 5585 5585 5585 5585 5585 5586 5585 5585 5585 5584 5582 5581 5579 5577 5575 5572 5568 5563 5560 5556 5551 5546 5538 5531 5523 5514 5506 5500 5494 5488 5486 5489
5610 5607 5604 5601 5599 5597 5595 5592 5590 5588 5587 5586 5585 5585 5585 5584 5583 5583 5582 5581 5580 5578 5577 5575 5572 5570 5567 5564 5560 5556 5552 5548 5543 5538 5531 5523 5515 5509 5503 5497 5493 5491 5493
5607 5604 5602 5600 5598 5595 5593 5591 5589 5587 5585 5584 5583 5582 5581 5580 5579 5578 5577 5576 5575 5574 5572 5569 5567 5565 5563 5560 5557 5554 5550 5546 5541 5537 5531 5523 5518 5514 5512 5509 5508 5506 5507
5603 5601 5599 5597 5595 5593 5591 5589 5587 5586 5584 5582 5581 5580 5578 5577 5576 5574 5573 5571 5570 5568 5566 5564 5562 5560 5558 5556 5553 5550 5548 5545 5540 5537 5532 5525 5521 5521 5517 5517 5516 5516 5519
5600 5598 5596 5594 5592 5590 5588 5586 5584 5582 5581 5579 5577 5576 5574 5572 5571 5569 5568 5566 5564 5562 5560 5558 5556 5555 5553 5551 5549 5547 5545 5543 5540 5537 5533 5529 5525 5522 5521 5523 5523 5523 5524
5597 5595 5593 5591 5588 5586 5584 5582 5580 5578 5576 5574 5573 5571 5569 5567 5565 5563 5561 5559 5557 5555 5554 5552 5550 5549 5548 5546 5545 5543 5542 5540 5539 5535 5533 5531 5528 5526 5526 5526 5527 5528 5530
5593 5591 5589 5587 5585 5583 5581 5578 5576 5574 5571 5569 5566 5564 5561 5559 5557 5555 5553 5551 5549 5547 5546 5544 5543 5541 5540 5540 5539 5538 5537 5537 5536 5533 5532 5531 5531 5530 5529 5528 5529 5530 5532
5590 5587 5586 5583 5581 5578 5576 5573 5570 5567 5565 5562 5559 5556 5553 5550 5547 5544 5542 5540 5538 5536 5534 5533 5533 5532 5532 5531 5531 5531 5531 5531 5531 5531 5529 5529 5529 5530 5529 5530 5530 5533 5532